LVMGN SAZM-SABE

Flight info

Callsign LVMGN
Flight time 0h 54m
Altitude 31000
Route PULPA1G PULPA UW31 TENIL TENIL8R
Aircraft SF50/L-SDGRWY/L

Departure

Time 2026-05-01 11:53
Airport Ástor Piazzola International Airport (SAZM)

Arrival

Time 2026-05-01 12:47
Airport Aeroparque Jorge Newbery (SABE)
Time Latitude Longitude Altitude Speed Heading
2026-05-01 11:42 -37.93463 -57.58116 73 ft 0 kts 223°
2026-05-01 11:46 -37.93474 -57.58123 73 ft 2 kts 129°
2026-05-01 11:46 -37.93462 -57.58108 73 ft 2 kts 37°
2026-05-01 11:47 -37.93438 -57.58074 73 ft 7 kts 40°
2026-05-01 11:47 -37.93386 -57.58033 73 ft 9 kts 39°
2026-05-01 11:47 -37.93395 -57.57949 73 ft 11 kts 118°
2026-05-01 11:47 -37.93443 -57.57852 73 ft 13 kts 122°
2026-05-01 11:48 -37.93488 -57.57737 73 ft 15 kts 120°
2026-05-01 11:48 -37.93546 -57.57606 73 ft 17 kts 120°
2026-05-01 11:48 -37.93611 -57.57462 73 ft 19 kts 120°
2026-05-01 11:48 -37.93681 -57.57302 73 ft 21 kts 120°
2026-05-01 11:49 -37.93758 -57.57129 73 ft 23 kts 119°
2026-05-01 11:49 -37.93839 -57.56947 73 ft 24 kts 119°
2026-05-01 11:49 -37.93922 -57.56756 73 ft 23 kts 118°
2026-05-01 11:49 -37.93995 -57.56590 73 ft 19 kts 119°
2026-05-01 11:50 -37.94035 -57.56484 73 ft 8 kts 95°
2026-05-01 11:50 -37.94021 -57.56430 73 ft 4 kts 60°
2026-05-01 11:50 -37.94013 -57.56410 73 ft 0 kts 65°
2026-05-01 11:51 -37.94007 -57.56395 73 ft 8 kts 62°
2026-05-01 11:52 -37.93918 -57.56365 73 ft 23 kts 314°
2026-05-01 11:52 -37.93733 -57.56714 73 ft 81 kts 304°
2026-05-01 11:52 -37.93355 -57.57443 307 ft 112 kts 304°
2026-05-01 11:52 -37.92910 -57.58365 636 ft 133 kts 302°
2026-05-01 11:53 -37.92409 -57.59432 947 ft 146 kts 301°
2026-05-01 11:53 -37.91925 -57.60578 1232 ft 150 kts 298°
2026-05-01 11:53 -37.91420 -57.61778 1474 ft 166 kts 302°
2026-05-01 11:53 -37.90779 -57.63088 1769 ft 186 kts 303°
2026-05-01 11:54 -37.90051 -57.64542 2059 ft 203 kts 302°
2026-05-01 11:54 -37.89269 -57.66110 2345 ft 219 kts 302°
2026-05-01 11:54 -37.88424 -57.67806 2634 ft 232 kts 302°
2026-05-01 11:54 -37.87549 -57.69564 2923 ft 241 kts 302°
2026-05-01 11:55 -37.86665 -57.71339 3352 ft 241 kts 302°
2026-05-01 11:55 -37.85770 -57.73117 3691 ft 242 kts 305°
2026-05-01 11:55 -37.84439 -57.74413 4008 ft 245 kts 331°
2026-05-01 11:55 -37.82804 -57.75000 4305 ft 249 kts 353°
2026-05-01 11:56 -37.81049 -57.74975 4593 ft 252 kts
2026-05-01 11:56 -37.79305 -57.74811 4875 ft 254 kts
2026-05-01 11:56 -37.77549 -57.74638 5152 ft 255 kts
2026-05-01 11:56 -37.75781 -57.74467 5428 ft 256 kts
2026-05-01 11:57 -37.74013 -57.74298 5703 ft 256 kts
2026-05-01 11:57 -37.72222 -57.74127 5982 ft 257 kts
2026-05-01 11:57 -37.70467 -57.73961 6254 ft 257 kts
2026-05-01 11:57 -37.68679 -57.73793 6531 ft 257 kts
2026-05-01 11:58 -37.66890 -57.73627 6807 ft 257 kts
2026-05-01 11:58 -37.65116 -57.73463 7081 ft 257 kts
2026-05-01 11:58 -37.61560 -57.73136 7630 ft 258 kts
2026-05-01 11:59 -37.59760 -57.72973 7908 ft 258 kts
2026-05-01 11:59 -37.57977 -57.72813 8184 ft 258 kts
2026-05-01 11:59 -37.56206 -57.72654 8457 ft 257 kts
2026-05-01 12:00 -37.52654 -57.72340 9006 ft 257 kts
2026-05-01 12:00 -37.50863 -57.72183 9282 ft 257 kts
2026-05-01 12:00 -37.47304 -57.71874 9833 ft 260 kts
2026-05-01 12:01 -37.45473 -57.71719 10114 ft 269 kts
2026-05-01 12:01 -37.43587 -57.71561 10394 ft 276 kts
2026-05-01 12:01 -37.41660 -57.71399 10673 ft 281 kts
2026-05-01 12:01 -37.39683 -57.71234 10953 ft 286 kts
2026-05-01 12:02 -37.37718 -57.71070 11261 ft 287 kts
2026-05-01 12:02 -37.35704 -57.70911 11572 ft 289 kts
2026-05-01 12:02 -37.33723 -57.70755 11868 ft 291 kts
2026-05-01 12:02 -37.31701 -57.70596 12159 ft 292 kts
2026-05-01 12:03 -37.29655 -57.70436 12444 ft 293 kts
2026-05-01 12:03 -37.27622 -57.70277 12720 ft 294 kts
2026-05-01 12:03 -37.25605 -57.70119 12993 ft 295 kts
2026-05-01 12:03 -37.23540 -57.69958 13273 ft 296 kts
2026-05-01 12:04 -37.21487 -57.69797 13550 ft 296 kts
2026-05-01 12:04 -37.19446 -57.69638 13825 ft 296 kts
2026-05-01 12:04 -37.17410 -57.69479 14100 ft 296 kts
2026-05-01 12:04 -37.15351 -57.69319 14377 ft 296 kts
2026-05-01 12:05 -37.13292 -57.69159 14655 ft 296 kts
2026-05-01 12:05 -37.09197 -57.68840 15208 ft 296 kts
2026-05-01 12:05 -37.07150 -57.68681 15485 ft 296 kts
2026-05-01 12:06 -37.05099 -57.68522 15762 ft 296 kts
2026-05-01 12:06 -37.03062 -57.68364 16038 ft 296 kts
2026-05-01 12:06 -37.01005 -57.68204 16317 ft 295 kts
2026-05-01 12:06 -36.98972 -57.68206 16594 ft 294 kts 354°
2026-05-01 12:07 -36.96952 -57.68383 16870 ft 293 kts 353°
2026-05-01 12:07 -36.94930 -57.68588 17147 ft 293 kts 353°
2026-05-01 12:07 -36.92887 -57.68802 17428 ft 293 kts 353°
2026-05-01 12:07 -36.90872 -57.69016 17705 ft 292 kts 353°
2026-05-01 12:08 -36.88847 -57.69233 17982 ft 292 kts 352°
2026-05-01 12:08 -36.86834 -57.69448 18255 ft 292 kts 352°
2026-05-01 12:08 -36.84826 -57.69662 18528 ft 291 kts 352°
2026-05-01 12:08 -36.82827 -57.69875 18800 ft 291 kts 352°
2026-05-01 12:09 -36.80800 -57.70092 19077 ft 290 kts 352°
2026-05-01 12:09 -36.78799 -57.70305 19351 ft 289 kts 352°
2026-05-01 12:09 -36.76807 -57.70518 19625 ft 289 kts 352°
2026-05-01 12:09 -36.74820 -57.70729 19898 ft 288 kts 352°
2026-05-01 12:10 -36.72831 -57.70941 20172 ft 288 kts 352°
2026-05-01 12:10 -36.68865 -57.71363 20722 ft 286 kts 351°
2026-05-01 12:10 -36.66878 -57.71574 20998 ft 286 kts 351°
2026-05-01 12:11 -36.62960 -57.71991 21546 ft 284 kts 351°
2026-05-01 12:11 -36.61008 -57.72198 21821 ft 283 kts 351°
2026-05-01 12:11 -36.59046 -57.72406 22097 ft 282 kts 351°
2026-05-01 12:12 -36.57093 -57.72613 22374 ft 281 kts 351°
2026-05-01 12:12 -36.55166 -57.72817 22647 ft 281 kts 351°
2026-05-01 12:12 -36.53212 -57.73024 22926 ft 280 kts 351°
2026-05-01 12:12 -36.51283 -57.73229 23202 ft 279 kts 350°
2026-05-01 12:13 -36.49372 -57.73431 23477 ft 278 kts 350°
2026-05-01 12:13 -36.47458 -57.73634 23753 ft 276 kts 350°
2026-05-01 12:13 -36.45562 -57.73834 24027 ft 275 kts 350°
2026-05-01 12:13 -36.43659 -57.74035 24304 ft 274 kts 350°
2026-05-01 12:14 -36.41774 -57.74234 24580 ft 273 kts 350°
2026-05-01 12:14 -36.39900 -57.74432 24855 ft 272 kts 349°
2026-05-01 12:14 -36.38007 -57.74632 25135 ft 270 kts 349°
2026-05-01 12:14 -36.36147 -57.74828 25411 ft 269 kts 349°
2026-05-01 12:15 -36.34307 -57.75022 25685 ft 268 kts 349°
2026-05-01 12:15 -36.32447 -57.75218 25964 ft 266 kts 349°
2026-05-01 12:15 -36.30627 -57.75409 26239 ft 265 kts 349°
2026-05-01 12:15 -36.28795 -57.75602 26517 ft 263 kts 349°
2026-05-01 12:16 -36.26979 -57.75794 26794 ft 262 kts 349°
2026-05-01 12:16 -36.25180 -57.75983 27070 ft 260 kts 348°
2026-05-01 12:16 -36.23402 -57.76170 27345 ft 258 kts 348°
2026-05-01 12:16 -36.21629 -57.76356 27621 ft 256 kts 348°
2026-05-01 12:17 -36.19856 -57.76542 27899 ft 255 kts 348°
2026-05-01 12:17 -36.18109 -57.76725 28175 ft 253 kts 348°
2026-05-01 12:17 -36.16378 -57.76907 28450 ft 251 kts 348°
2026-05-01 12:17 -36.14648 -57.77088 28727 ft 249 kts 348°
2026-05-01 12:18 -36.12935 -57.77268 29004 ft 247 kts 347°
2026-05-01 12:18 -36.11239 -57.77446 29280 ft 244 kts 347°
2026-05-01 12:18 -36.09562 -57.77621 29556 ft 242 kts 347°
2026-05-01 12:18 -36.07904 -57.77795 29831 ft 240 kts 347°
2026-05-01 12:19 -36.06247 -57.77968 30109 ft 237 kts 347°
2026-05-01 12:19 -36.04615 -57.78139 30385 ft 234 kts 347°
2026-05-01 12:19 -36.03022 -57.78305 30657 ft 232 kts 346°
2026-05-01 12:19 -36.01429 -57.78472 30899 ft 231 kts 346°
2026-05-01 12:20 -35.99798 -57.78646 30940 ft 239 kts 347°
2026-05-01 12:20 -35.98118 -57.78825 30944 ft 248 kts 347°
2026-05-01 12:20 -35.96382 -57.79007 30944 ft 256 kts 347°
2026-05-01 12:20 -35.94593 -57.79194 30943 ft 263 kts 347°
2026-05-01 12:21 -35.92754 -57.79385 30943 ft 270 kts 348°
2026-05-01 12:21 -35.90865 -57.79582 30943 ft 275 kts 348°
2026-05-01 12:21 -35.88940 -57.79782 30942 ft 281 kts 348°
2026-05-01 12:21 -35.86985 -57.79985 30942 ft 285 kts 348°
2026-05-01 12:22 -35.84995 -57.80192 30942 ft 289 kts 348°
2026-05-01 12:22 -35.82997 -57.80400 30941 ft 292 kts 348°
2026-05-01 12:22 -35.80971 -57.80610 30941 ft 295 kts 348°
2026-05-01 12:22 -35.78920 -57.80823 30941 ft 298 kts 348°
2026-05-01 12:23 -35.76870 -57.81036 30941 ft 300 kts 348°
2026-05-01 12:23 -35.74789 -57.81252 30941 ft 302 kts 348°
2026-05-01 12:23 -35.70601 -57.81686 30941 ft 305 kts 348°
2026-05-01 12:24 -35.66357 -57.82126 30940 ft 307 kts 348°
2026-05-01 12:24 -35.64261 -57.82343 30779 ft 307 kts 348°
2026-05-01 12:24 -35.62124 -57.82565 30249 ft 309 kts 349°
2026-05-01 12:25 -35.59998 -57.82785 29729 ft 310 kts 349°
2026-05-01 12:25 -35.55691 -57.83231 28681 ft 312 kts 349°
2026-05-01 12:25 -35.53549 -57.83462 28160 ft 312 kts 349°
2026-05-01 12:26 -35.51393 -57.83707 27637 ft 312 kts 349°
2026-05-01 12:26 -35.47089 -57.84200 26420 ft 315 kts 349°
2026-05-01 12:26 -35.44904 -57.84450 25794 ft 316 kts 349°
2026-05-01 12:27 -35.42734 -57.84699 25173 ft 316 kts 350°
2026-05-01 12:27 -35.38372 -57.85198 23926 ft 316 kts 350°
2026-05-01 12:28 -35.34038 -57.85693 22685 ft 315 kts 351°
2026-05-01 12:28 -35.31888 -57.85939 22068 ft 315 kts 351°
2026-05-01 12:28 -35.27561 -57.86433 20822 ft 313 kts 351°
2026-05-01 12:29 -35.25386 -57.86681 20194 ft 312 kts 351°
2026-05-01 12:29 -35.23245 -57.86925 19573 ft 311 kts 352°
2026-05-01 12:29 -35.18975 -57.87411 18329 ft 309 kts 352°
2026-05-01 12:30 -35.14755 -57.87891 17091 ft 307 kts 352°
2026-05-01 12:30 -35.12643 -57.88131 16468 ft 305 kts 353°
2026-05-01 12:30 -35.10529 -57.88372 15840 ft 303 kts 353°
2026-05-01 12:31 -35.08464 -57.88606 15223 ft 301 kts 353°
2026-05-01 12:31 -35.06402 -57.88840 14600 ft 298 kts 353°
2026-05-01 12:31 -35.04357 -57.89072 13979 ft 296 kts 353°
2026-05-01 12:31 -35.02331 -57.89302 13358 ft 294 kts 353°
2026-05-01 12:32 -35.00302 -57.89532 12733 ft 292 kts 353°
2026-05-01 12:32 -34.96640 -57.91057 11476 ft 272 kts 327°
2026-05-01 12:32 -34.95009 -57.92125 10829 ft 267 kts 344°
2026-05-01 12:33 -34.93209 -57.92044 10193 ft 264 kts 18°
2026-05-01 12:33 -34.91765 -57.90756 9553 ft 262 kts 52°
2026-05-01 12:33 -34.91202 -57.88717 9047 ft 254 kts 89°
2026-05-01 12:33 -34.91713 -57.86729 8580 ft 246 kts 126°
2026-05-01 12:34 -34.93032 -57.85563 8123 ft 239 kts 163°
2026-05-01 12:34 -34.94634 -57.85627 7661 ft 232 kts 202°
2026-05-01 12:34 -34.95817 -57.86888 7196 ft 227 kts 242°
2026-05-01 12:34 -34.96050 -57.88725 6737 ft 224 kts 281°
2026-05-01 12:35 -34.95490 -57.90452 6428 ft 217 kts 300°
2026-05-01 12:35 -34.94620 -57.91924 6200 ft 214 kts 310°
2026-05-01 12:35 -34.93578 -57.93257 5974 ft 219 kts 316°
2026-05-01 12:35 -34.92419 -57.94495 5751 ft 224 kts 320°
2026-05-01 12:36 -34.91204 -57.95686 5526 ft 223 kts 321°
2026-05-01 12:36 -34.90001 -57.96847 5300 ft 220 kts 321°
2026-05-01 12:36 -34.88809 -57.97990 5076 ft 218 kts 322°
2026-05-01 12:36 -34.87621 -57.99123 4850 ft 217 kts 322°
2026-05-01 12:37 -34.86447 -58.00241 4627 ft 216 kts 322°
2026-05-01 12:37 -34.85260 -58.01369 4400 ft 215 kts 322°
2026-05-01 12:37 -34.84083 -58.02489 4174 ft 214 kts 322°
2026-05-01 12:37 -34.82925 -58.03589 3952 ft 214 kts 322°
2026-05-01 12:38 -34.81760 -58.04696 3737 ft 213 kts 322°
2026-05-01 12:38 -34.80587 -58.05809 3560 ft 210 kts 322°
2026-05-01 12:38 -34.79449 -58.06890 3386 ft 209 kts 322°
2026-05-01 12:38 -34.78306 -58.07975 3210 ft 207 kts 322°
2026-05-01 12:39 -34.77188 -58.09036 3044 ft 205 kts 322°
2026-05-01 12:39 -34.76079 -58.10088 3004 ft 197 kts 322°
2026-05-01 12:39 -34.74999 -58.11111 3002 ft 196 kts 322°
2026-05-01 12:39 -34.73936 -58.12119 3002 ft 194 kts 322°
2026-05-01 12:40 -34.72859 -58.13139 3002 ft 194 kts 322°
2026-05-01 12:40 -34.71807 -58.14135 3003 ft 194 kts 322°
2026-05-01 12:40 -34.70748 -58.15181 3000 ft 194 kts 314°
2026-05-01 12:40 -34.69905 -58.16473 2920 ft 198 kts 306°
2026-05-01 12:41 -34.69116 -58.17862 2821 ft 199 kts 304°
2026-05-01 12:41 -34.68337 -58.19262 2722 ft 200 kts 304°
2026-05-01 12:41 -34.67559 -58.20665 2623 ft 201 kts 304°
2026-05-01 12:41 -34.66776 -58.22078 2526 ft 201 kts 305°
2026-05-01 12:42 -34.66006 -58.23464 2501 ft 196 kts 304°
2026-05-01 12:42 -34.65328 -58.24687 2512 ft 156 kts 305°
2026-05-01 12:42 -34.64757 -58.25716 2378 ft 138 kts 306°
2026-05-01 12:42 -34.64246 -58.26634 2248 ft 128 kts 305°
2026-05-01 12:43 -34.63750 -58.27526 2120 ft 128 kts 306°
2026-05-01 12:43 -34.63244 -58.28434 1997 ft 130 kts 306°
2026-05-01 12:43 -34.62736 -58.29349 1872 ft 131 kts 306°
2026-05-01 12:43 -34.62228 -58.30263 1751 ft 132 kts 306°
2026-05-01 12:44 -34.61711 -58.31191 1626 ft 131 kts 306°
2026-05-01 12:44 -34.61204 -58.32102 1515 ft 130 kts 306°
2026-05-01 12:44 -34.60210 -58.33887 1312 ft 125 kts 306°
2026-05-01 12:45 -34.59244 -58.35619 1114 ft 122 kts 306°
2026-05-01 12:45 -34.58771 -58.36470 1011 ft 122 kts 306°
2026-05-01 12:45 -34.58365 -58.37215 1022 ft 91 kts 306°
2026-05-01 12:46 -34.58037 -58.37832 831 ft 86 kts 305°
2026-05-01 12:46 -34.57710 -58.38419 626 ft 83 kts 308°
2026-05-01 12:46 -34.57385 -58.38985 432 ft 79 kts 307°
2026-05-01 12:46 -34.57103 -58.39526 289 ft 76 kts 306°
2026-05-01 12:47 -34.56810 -58.40030 157 ft 70 kts 310°
2026-05-01 12:47 -34.56532 -58.40504 35 ft 66 kts 309°
2026-05-01 12:47 -34.56287 -58.40931 23 ft 56 kts 304°
2026-05-01 12:47 -34.56087 -58.41287 22 ft 43 kts 302°
2026-05-01 12:48 -34.55942 -58.41556 22 ft 34 kts 311°
2026-05-01 12:48 -34.55823 -58.41761 22 ft 25 kts 304°
2026-05-01 12:48 -34.55741 -58.41896 22 ft 12 kts 321°
2026-05-01 12:48 -34.55676 -58.41890 22 ft 8 kts 32°
2026-05-01 12:49 -34.55633 -58.41856 22 ft 6 kts 33°
2026-05-01 12:49 -34.55613 -58.41806 22 ft 9 kts 111°
2026-05-01 12:49 -34.55658 -58.41719 22 ft 15 kts 124°
2026-05-01 12:49 -34.55709 -58.41622 22 ft 9 kts 121°
2026-05-01 12:50 -34.55719 -58.41548 22 ft 10 kts 78°
2026-05-01 12:50 -34.55743 -58.41459 22 ft 10 kts 120°
2026-05-01 12:50 -34.55774 -58.41399 22 ft 6 kts 123°
2026-05-01 12:50 -34.55786 -58.41362 22 ft 3 kts 65°
2026-05-01 12:51 -34.55767 -58.41330 22 ft 6 kts 37°
2026-05-01 12:51 -34.55757 -58.41322 22 ft 0 kts 33°